UB3APB-W3 Weather Reports


time (UTC)temp
C
wind
direction
speed
KPH
gust
KPH
rain 1hr
cm
rain 24hr
cm
rain mn
cm
humidity
%
barometer
mb
20260906103315 17 0.0 0.0 0.00 0.00 0.00 981.9
20260906093224 15 0.0 0.0 0.00 0.00 0.00 981.7
20260906092716 15 0.0 0.0 0.00 0.00 0.00 981.7
20260906091705 -17 0.0 0.0 0.00 0.00 0.00 16.9
20260906081543 15 0.0 0.0 0.00 0.00 0.00 981.4
20260906081039 15 0.0 0.0 0.00 0.00 0.00 981.5
20260906080532 15 0.0 0.0 0.00 0.00 0.00 981.4
20260906080026 15 0.0 0.0 0.00 0.00 0.00 981.4
20260906075518 15 0.0 0.0 0.00 0.00 0.00 981.4
20260906075012 15 0.0 0.0 0.00 0.00 0.00 981.4
20260906064839 13 0.0 0.0 0.00 0.00 0.00 981.3
20260906064333 13 0.0 0.0 0.00 0.00 0.00 981.4
20260906063826 13 0.0 0.0 0.00 0.00 0.00 981.5
20260906063318 12 0.0 0.0 0.00 0.00 0.00 981.3
20260906053134 -17 0.0 0.0 0.00 0.00 0.00 15.6
20260906052628 -17 0.0 0.0 0.00 0.00 0.00 15.5
20260906052121 13 0.0 0.0 0.00 0.00 0.00 15.4
20260906051614 13 0.0 0.0 0.00 0.00 0.00 980.9
20260906041347 12 0.0 0.0 0.00 0.00 0.00 980.9
20260906040841 12 0.0 0.0 0.00 0.00 0.00 981.0
20260906040334 12 0.0 0.0 0.00 0.00 0.00 980.9
20260906035828 12 0.0 0.0 0.00 0.00 0.00 980.9
20260906035326 12 0.0 0.0 0.00 0.00 0.00 980.9
20260906034818 12 0.0 0.0 0.00 0.00 0.00 497.8
20260906024621 -17 0.0 0.0 0.00 0.00 0.00 14.7
20260906024115 12 0.0 0.0 0.00 0.00 0.00 980.5
20260906023611 12 0.0 0.0 0.00 0.00 0.00 980.3
20260906023106 12 0.0 0.0 0.00 0.00 0.00 980.3
20260906012625 12 0.0 0.0 0.00 0.00 0.00 14.7
20260906012118 12 0.0 0.0 0.00 0.00 0.00 980.2
20260906011609 12 0.0 0.0 0.00 0.00 0.00 980.3
20260906001446 12 0.0 0.0 0.00 0.00 0.00 980.1
20260906000939 12 0.0 0.0 0.00 0.00 0.00 980.1
20260906000433 12 0.0 0.0 0.00 0.00 0.00 979.9
20260905235927 12 0.0 0.0 0.00 0.00 0.00 979.9
20260905235423 12 0.0 0.0 0.00 0.00 0.00 980.1
20260905234918 12 0.0 0.0 0.00 0.00 0.00 979.9
20260905224735 11 0.0 0.0 0.00 0.00 0.00 979.5
20260905223724 11 0.0 0.0 0.00 0.00 0.00 979.5
20260905213142 -17 0.0 0.0 0.00 0.00 0.00 14.5
20260905212636 -17 0.0 0.0 0.00 0.00 0.00 14.8
20260905212129 -17 0.0 0.0 0.00 0.00 0.00 14.9
20260905211619 11 0.0 0.0 0.00 0.00 0.00 979.7
20260905201041 11 0.0 0.0 0.00 0.00 0.00 979.5
20260905200535 11 0.0 0.0 0.00 0.00 0.00 979.4
20260905200028 11 0.0 0.0 0.00 0.00 0.00 979.4
20260905195521 11 0.0 0.0 0.00 0.00 0.00 979.4
20260905195014 11 0.0 0.0 0.00 0.00 0.00 979.4
20260905184921 11 0.0 0.0 0.00 0.00 0.00 979.5
20260905184419 11 0.0 0.0 0.00 0.00 0.00 979.5
20260905183912 11 0.0 0.0 0.00 0.00 0.00 979.5
20260905183405 12 0.0 0.0 0.00 0.00 0.00 979.5
20260905173238 13 0.0 0.0 0.00 0.00 0.00 979.1
20260905172737 13 0.0 0.0 0.00 0.00 0.00 979.1
20260905171722 15 0.0 0.0 0.00 0.00 0.00 979.1
20260905161335 13 0.0 0.0 0.00 0.00 0.00 978.5
20260905160825 13 0.0 0.0 0.00 0.00 0.00 978.5
20260905160321 14 0.0 0.0 0.00 0.00 0.00 978.3
20260905155814 15 0.0 0.0 0.00 0.00 0.00 978.3
20260905155306 15 0.0 0.0 0.00 0.00 0.00 978.3
20260905154802 15 0.0 0.0 0.00 0.00 0.00 978.3
20260905144619 16 0.0 0.0 0.00 0.00 0.00 977.4
20260905144119 16 0.0 0.0 0.00 0.00 0.00 977.3
20260905143611 17 0.0 0.0 0.00 0.00 0.00 977.3
20260905143103 17 0.0 0.0 0.00 0.00 0.00 977.1
20260905132618 17 0.0 0.0 0.00 0.00 0.00 976.9
20260905132111 17 0.0 0.0 0.00 0.00 0.00 976.9
20260905131602 17 0.0 0.0 0.00 0.00 0.00 976.7
20260905121250 16 0.0 0.0 0.00 0.00 0.00 976.1
20260905120744 16 0.0 0.0 0.00 0.00 0.00 976.1
20260905120236 17 0.0 0.0 0.00 0.00 0.00 976.1
20260905115730 16 0.0 0.0 0.00 0.00 0.00 975.8
20260905115222 17 0.0 0.0 0.00 0.00 0.00 975.7
20260905114715 17 0.0 0.0 0.00 0.00 0.00 975.4
20260905104335 18 0.0 0.0 0.00 0.00 0.00 974.2
20260905103827 17 0.0 0.0 0.00 0.00 0.00 974.2